Terminal Aerodrome Forecast
Issued by NWS St Louis, MO

Home | Current Version | Previous Version | Graphics & Text | Print | Product List | Glossary On
Versions: 1 2 3 4 5 6 7 8 9 10 11 12 13 14 15 16 17 18 19 20 21 22 23 24 25 26 27
998
FTUS43 KLSX 221126
TAFSTL
TAF
KSTL 221126Z 2212/2318 05015G25KT P6SM VCTS BKN020CB OVC050
      TEMPO 2212/2214 4SM -TSRA
     FM221400 24008KT P6SM SCT040 BKN250
     FM230100 18005KT P6SM BKN250
     FM231500 21008KT P6SM SCT040 BKN250=

USA.gov is the U.S. government's official web portal to all federal, state and local government web resources and services.